Weather History for KSBM - October, 2013

Change the Weather History Date:

Wednesday, October 9, 2013

  Actual Average Record
Temperature  
Mean Temperature 56 °F -  
Max Temperature 71 °F 60 °F 81 °F (1966)
Min Temperature 41 °F 44 °F 30 °F (1996)
Degree Days  
Heating Degree Days 10    
Growing Degree Days 6 (Base 50)    
Moisture  
Dew Point 47 °F    
Average Humidity 85    
Maximum Humidity 100    
Minimum Humidity 48    
Precipitation  
Precipitation 0.00 in - - ()
Sea Level Pressure  
Sea Level Pressure 30.19 in    
Wind  
Wind Speed 4 mph (South)    
Max Wind Speed 12 mph    
Max Gust Speed -    
Visibility 7 miles    
Events      
Averages and records for this station are not official NWS values.
T = Trace of Precipitation, MM = Missing Value Source: NWS Daily Summary

Daily Weather History Graph

Daily Weather History Graph

Search for Another Location

Airport or City:

Trip Planner

Search our weather history database for the weather conditions in past years. The results will help you decide how hot, cold, wet, or windy it might be!

Date:

Astronomy

Oct. 09, 2013 Rise Set
Actual Time 6:58 AM CDT 6:17 PM CDT
Civil Twilight 6:29 AM CDT 6:46 PM CDT
Nautical Twilight 5:56 AM CDT 7:19 PM CDT
Astronomical Twilight 5:23 AM CDT 7:52 PM CDT
Moon 12:01 PM CDT (10/9) 9:44 PM CDT (10/9)
Length of Visible Light 12h 16m
Length of Day
11h 18m
Waxing Crescent, 25% of the Moon is Illuminated
Oct 9
Waxing Crescent
Oct 11
First Quarter
Oct 18
Full
Oct 26
Last Quarter
Nov 3
New

Hourly Weather History & Observations

Time (CDT) Temp. Windchill Dew Point Humidity Pressure Visibility Wind Dir Wind Speed Gust Speed Precip Events Conditions
12:53 AM 55.9 °F - 51.1 °F 84% 30.14 in 10.0 mi South 8.1 mph - N/A   Clear
1:53 AM 52.0 °F - 50.0 °F 93% 30.15 in 10.0 mi West 3.5 mph - N/A   Clear
2:53 AM 48.0 °F - 48.0 °F 100% 30.16 in 10.0 mi Calm Calm - N/A   Clear
3:53 AM 46.9 °F - 46.9 °F 100% 30.17 in 8.0 mi Calm Calm - N/A   Clear
4:53 AM 48.0 °F - 46.9 °F 96% 30.18 in 10.0 mi SSW 3.5 mph - N/A   Clear
5:53 AM 46.9 °F - 46.0 °F 97% 30.20 in 10.0 mi Calm Calm - N/A   Clear
6:53 AM 46.0 °F 44.8 °F 45.0 °F 96% 30.22 in 10.0 mi South 3.5 mph - N/A   Clear
7:53 AM 50.0 °F - 48.9 °F 96% 30.23 in 10.0 mi Calm Calm - N/A   Clear
8:53 AM 55.9 °F - 51.1 °F 84% 30.24 in 10.0 mi South 6.9 mph - N/A   Clear
9:53 AM 62.1 °F - 52.0 °F 70% 30.23 in 10.0 mi SSW 6.9 mph - N/A   Clear
10:53 AM 66.9 °F - 51.1 °F 57% 30.23 in 10.0 mi SSW 9.2 mph - N/A   Clear
11:53 AM 70.0 °F - 51.1 °F 51% 30.22 in 10.0 mi SSW 11.5 mph - N/A   Clear
12:53 PM 69.1 °F - 53.1 °F 57% 30.21 in 10.0 mi SE 9.2 mph - N/A   Clear
1:53 PM 68.0 °F - 52.0 °F 56% 30.20 in 10.0 mi SSE 10.4 mph - N/A   Clear
2:53 PM 66.9 °F - 48.9 °F 52% 30.20 in 10.0 mi SSE 11.5 mph - N/A   Clear
3:53 PM 64.9 °F - 45.0 °F 48% 30.19 in 10.0 mi SE 9.2 mph - N/A   Clear
4:53 PM 64.0 °F - 46.0 °F 52% 30.19 in 10.0 mi SE 6.9 mph - N/A   Clear
5:53 PM 60.1 °F - 48.9 °F 67% 30.18 in 10.0 mi SSE 3.5 mph - N/A   Clear
6:53 PM 55.9 °F - 50.0 °F 80% 30.19 in 10.0 mi SSE 3.5 mph - N/A   Clear
7:53 PM 51.1 °F - 48.0 °F 89% 30.19 in 10.0 mi SSE 5.8 mph - N/A   Clear
8:53 PM 50.0 °F - 48.9 °F 96% 30.19 in 10.0 mi Calm Calm - N/A   Clear
9:53 PM 48.9 °F - 48.0 °F 97% 30.19 in 6.0 mi Calm Calm - N/A   Clear
10:13 PM 44.6 °F - 44.6 °F 100% 30.18 in 1.8 mi Calm Calm - N/A   Clear
10:23 PM 44.6 °F - 44.6 °F 100% 30.18 in 3.0 mi Calm Calm - N/A   Clear
10:32 PM 44.6 °F - 44.6 °F 100% 30.18 in 2.0 mi Calm Calm - N/A   Clear
10:41 PM 44.6 °F - 44.6 °F 100% 30.18 in 3.0 mi Calm Calm - N/A   Clear
10:49 PM 42.8 °F - 42.8 °F 100% 30.18 in 1.5 mi Calm Calm - N/A   Clear
10:53 PM 44.1 °F - 43.0 °F 96% 30.19 in 1.2 mi Calm Calm - N/A   Clear
11:15 PM 44.6 °F - 44.6 °F 100% 30.17 in 0.8 mi Calm Calm - N/A   Mist
11:37 PM 41.0 °F - 41.0 °F 100% 30.17 in 1.2 mi Calm Calm - N/A   Partly Cloudy
11:40 PM 41.0 °F - 41.0 °F 100% 30.17 in 3.0 mi Calm Calm - N/A   Partly Cloudy
11:53 PM 43.0 °F - 43.0 °F 100% 30.18 in 5.0 mi Calm Calm - N/A   Clear